Year,Month,Day,Hour,Minute,Value (Times are PST for temperature in C)
2004,06,20,00,00,20.80
2004,06,20,00,01,20.70
2004,06,20,00,02,20.70
2004,06,20,00,03,20.60
2004,06,20,00,04,20.60
2004,06,20,00,05,20.60
2004,06,20,00,06,20.50
2004,06,20,00,07,20.50
2004,06,20,00,08,20.50
2004,06,20,00,09,20.40
2004,06,20,00,10,20.40
2004,06,20,00,11,20.40
2004,06,20,00,12,20.30
2004,06,20,00,13,20.30
2004,06,20,00,14,20.30
2004,06,20,00,15,20.30
2004,06,20,00,16,20.30
2004,06,20,00,17,20.30
2004,06,20,00,18,20.20
2004,06,20,00,19,20.20
2004,06,20,00,20,20.20
2004,06,20,00,21,20.20
2004,06,20,00,22,20.20
2004,06,20,00,23,20.20
2004,06,20,00,24,20.20
2004,06,20,00,25,20.20
2004,06,20,00,26,20.10
2004,06,20,00,27,20.10
2004,06,20,00,28,20.10
2004,06,20,00,29,20.10
2004,06,20,00,30,20.00
2004,06,20,00,31,20.00
2004,06,20,00,32,20.00
2004,06,20,00,33,19.90
2004,06,20,00,34,19.90
2004,06,20,00,35,19.90
2004,06,20,00,36,19.90
2004,06,20,00,37,19.90
2004,06,20,00,38,19.90
2004,06,20,00,39,19.90
2004,06,20,00,40,19.90
2004,06,20,00,41,19.90
2004,06,20,00,42,19.90
2004,06,20,00,43,19.90
2004,06,20,00,44,19.90
2004,06,20,00,45,19.90
2004,06,20,00,46,19.90
2004,06,20,00,47,19.90
2004,06,20,00,48,19.90
2004,06,20,00,49,19.90
2004,06,20,00,50,19.90
2004,06,20,00,51,19.90
2004,06,20,00,52,19.90
2004,06,20,00,53,19.90
2004,06,20,00,54,20.00
2004,06,20,00,55,20.10
2004,06,20,00,56,20.10
2004,06,20,00,57,20.00
2004,06,20,00,58,20.00
2004,06,20,00,59,20.00
2004,06,20,01,00,19.90
2004,06,20,01,01,19.90
2004,06,20,01,02,19.90
2004,06,20,01,03,19.90
2004,06,20,01,04,19.90
2004,06,20,01,05,19.90
2004,06,20,01,06,19.80
2004,06,20,01,07,19.60
2004,06,20,01,08,19.60
2004,06,20,01,09,19.50
2004,06,20,01,10,19.40
2004,06,20,01,11,19.40
2004,06,20,01,12,19.30
2004,06,20,01,13,19.20
2004,06,20,01,14,19.20
2004,06,20,01,15,19.20
2004,06,20,01,16,19.10
2004,06,20,01,17,19.10
2004,06,20,01,18,19.10
2004,06,20,01,19,19.00
2004,06,20,01,20,19.00
2004,06,20,01,21,18.90
2004,06,20,01,22,18.90
2004,06,20,01,23,18.90
2004,06,20,01,24,18.90
2004,06,20,01,25,18.80
2004,06,20,01,26,18.80
2004,06,20,01,27,18.70
2004,06,20,01,28,18.70
2004,06,20,01,29,18.70
2004,06,20,01,30,18.70
2004,06,20,01,31,18.70
2004,06,20,01,32,18.60
2004,06,20,01,33,18.60
2004,06,20,01,34,18.70
2004,06,20,01,35,18.70
2004,06,20,01,36,18.70
2004,06,20,01,37,18.70
2004,06,20,01,38,18.70
2004,06,20,01,39,18.60
2004,06,20,01,40,18.60
2004,06,20,01,41,18.60
2004,06,20,01,42,18.60
2004,06,20,01,43,18.50
2004,06,20,01,44,18.50
2004,06,20,01,45,18.50
2004,06,20,01,46,18.40
2004,06,20,01,47,18.40
2004,06,20,01,48,18.30
2004,06,20,01,49,18.30
2004,06,20,01,50,18.30
2004,06,20,01,51,18.20
2004,06,20,01,52,18.20
2004,06,20,01,53,18.20
2004,06,20,01,54,18.20
2004,06,20,01,55,18.20
2004,06,20,01,56,18.20
2004,06,20,01,57,18.20
2004,06,20,01,58,18.20
2004,06,20,01,59,18.20
2004,06,20,02,00,18.20
2004,06,20,02,01,18.20
2004,06,20,02,02,18.20
2004,06,20,02,03,18.20
2004,06,20,02,04,18.20
2004,06,20,02,05,18.20
2004,06,20,02,06,18.20
2004,06,20,02,07,18.20
2004,06,20,02,08,18.20
2004,06,20,02,09,18.10
2004,06,20,02,10,18.10
2004,06,20,02,11,18.10
2004,06,20,02,12,18.00
2004,06,20,02,13,17.90
2004,06,20,02,14,17.90
2004,06,20,02,15,17.90
2004,06,20,02,16,17.90
2004,06,20,02,17,17.80
2004,06,20,02,18,17.80
2004,06,20,02,19,17.70
2004,06,20,02,20,17.70
2004,06,20,02,21,17.60
2004,06,20,02,22,17.60
2004,06,20,02,23,17.60
2004,06,20,02,24,17.60
2004,06,20,02,25,17.60
2004,06,20,02,26,17.60
2004,06,20,02,27,17.60
2004,06,20,02,28,17.60
2004,06,20,02,29,17.60
2004,06,20,02,30,17.60
2004,06,20,02,31,17.60
2004,06,20,02,32,17.60
2004,06,20,02,33,17.60
2004,06,20,02,34,17.60
2004,06,20,02,35,17.60
2004,06,20,02,36,17.50
2004,06,20,02,37,17.50
2004,06,20,02,38,17.50
2004,06,20,02,39,17.50
2004,06,20,02,40,17.50
2004,06,20,02,41,17.40
2004,06,20,02,42,17.40
2004,06,20,02,43,17.20
2004,06,20,02,44,17.10
2004,06,20,02,45,16.90
2004,06,20,02,46,16.80
2004,06,20,02,47,16.70
2004,06,20,02,48,16.50
2004,06,20,02,49,16.40
2004,06,20,02,50,16.40
2004,06,20,02,51,16.40
2004,06,20,02,52,16.30
2004,06,20,02,53,16.30
2004,06,20,02,54,16.30
2004,06,20,02,55,16.30
2004,06,20,02,56,16.30
2004,06,20,02,57,16.30
2004,06,20,02,58,16.10
2004,06,20,02,59,16.00
2004,06,20,03,00,15.80
2004,06,20,03,01,15.50
2004,06,20,03,02,15.30
2004,06,20,03,03,15.10
2004,06,20,03,04,15.00
2004,06,20,03,05,14.80
2004,06,20,03,06,14.70
2004,06,20,03,07,14.60
2004,06,20,03,08,14.40
2004,06,20,03,09,14.30
2004,06,20,03,10,14.20
2004,06,20,03,11,14.10
2004,06,20,03,12,14.00
2004,06,20,03,13,13.90
2004,06,20,03,14,13.80
2004,06,20,03,15,13.70
2004,06,20,03,16,13.70
2004,06,20,03,17,13.60
2004,06,20,03,18,13.60
2004,06,20,03,19,13.50
2004,06,20,03,20,13.40
2004,06,20,03,21,13.40
2004,06,20,03,22,13.40
2004,06,20,03,23,13.50
2004,06,20,03,24,13.50
2004,06,20,03,25,13.50
2004,06,20,03,26,13.50
2004,06,20,03,27,13.40
2004,06,20,03,28,13.50
2004,06,20,03,29,13.50
2004,06,20,03,30,13.50
2004,06,20,03,31,13.50
2004,06,20,03,32,13.60
2004,06,20,03,33,13.60
2004,06,20,03,34,13.70
2004,06,20,03,35,13.70
2004,06,20,03,36,13.70
2004,06,20,03,37,13.70
2004,06,20,03,38,13.60
2004,06,20,03,39,13.60
2004,06,20,03,40,13.50
2004,06,20,03,41,13.60
2004,06,20,03,42,13.60
2004,06,20,03,43,13.60
2004,06,20,03,44,13.60
2004,06,20,03,45,13.70
2004,06,20,03,46,13.70
2004,06,20,03,47,13.70
2004,06,20,03,48,13.70
2004,06,20,03,49,13.70
2004,06,20,03,50,13.70
2004,06,20,03,51,13.70
2004,06,20,03,52,13.70
2004,06,20,03,53,13.80
2004,06,20,03,54,13.80
2004,06,20,03,55,13.90
2004,06,20,03,56,13.90
2004,06,20,03,57,14.00
2004,06,20,03,58,14.00
2004,06,20,03,59,14.00
2004,06,20,04,00,14.00
2004,06,20,04,01,14.00
2004,06,20,04,02,14.00
2004,06,20,04,03,14.00
2004,06,20,04,04,14.10
2004,06,20,04,05,14.20
2004,06,20,04,06,14.20
2004,06,20,04,07,14.30
2004,06,20,04,08,14.30
2004,06,20,04,09,14.20
2004,06,20,04,10,14.20
2004,06,20,04,11,14.20
2004,06,20,04,12,14.10
2004,06,20,04,13,14.00
2004,06,20,04,14,13.90
2004,06,20,04,15,13.80
2004,06,20,04,16,13.70
2004,06,20,04,17,13.50
2004,06,20,04,18,13.40
2004,06,20,04,19,13.30
2004,06,20,04,20,13.20
2004,06,20,04,21,13.10
2004,06,20,04,22,13.10
2004,06,20,04,23,13.10
2004,06,20,04,24,13.00
2004,06,20,04,25,13.00
2004,06,20,04,26,12.90
2004,06,20,04,27,12.90
2004,06,20,04,28,12.80
2004,06,20,04,29,12.90
2004,06,20,04,30,13.00
2004,06,20,04,31,13.10
2004,06,20,04,32,13.20
2004,06,20,04,33,13.30
2004,06,20,04,34,13.30
2004,06,20,04,35,13.30
2004,06,20,04,36,13.30
2004,06,20,04,37,13.30
2004,06,20,04,38,13.30
2004,06,20,04,39,13.30
2004,06,20,04,40,13.30
2004,06,20,04,41,13.20
2004,06,20,04,42,13.20
2004,06,20,04,43,13.20
2004,06,20,04,44,13.20
2004,06,20,04,45,13.20
2004,06,20,04,46,13.20
2004,06,20,04,47,13.20
2004,06,20,04,48,13.20
2004,06,20,04,49,13.20
2004,06,20,04,50,13.20
2004,06,20,04,51,13.20
2004,06,20,04,52,13.30
2004,06,20,04,53,13.40
2004,06,20,04,54,13.50
2004,06,20,04,55,13.60
2004,06,20,04,56,13.60
2004,06,20,04,57,13.70
2004,06,20,04,58,13.70
2004,06,20,04,59,13.70
2004,06,20,05,00,13.60
2004,06,20,05,01,13.50
2004,06,20,05,02,13.50
2004,06,20,05,03,13.50
2004,06,20,05,04,13.50
2004,06,20,05,05,13.50
2004,06,20,05,06,13.50
2004,06,20,05,07,13.50
2004,06,20,05,08,13.40
2004,06,20,05,09,13.40
2004,06,20,05,10,13.40
2004,06,20,05,11,13.30
2004,06,20,05,12,13.30
2004,06,20,05,13,13.30
2004,06,20,05,14,13.30
2004,06,20,05,15,13.30
2004,06,20,05,16,13.30
2004,06,20,05,17,13.30
2004,06,20,05,18,13.30
2004,06,20,05,19,13.20
2004,06,20,05,20,13.20
2004,06,20,05,21,13.10
2004,06,20,05,22,13.10
2004,06,20,05,23,13.10
2004,06,20,05,24,13.10
2004,06,20,05,25,13.10
2004,06,20,05,26,13.10
2004,06,20,05,27,13.00
2004,06,20,05,28,13.00
2004,06,20,05,29,12.90
2004,06,20,05,30,12.80
2004,06,20,05,31,12.80
2004,06,20,05,32,12.80
2004,06,20,05,33,12.80
2004,06,20,05,34,12.80
2004,06,20,05,35,12.80
2004,06,20,05,36,12.80
2004,06,20,05,37,12.80
2004,06,20,05,38,12.80
2004,06,20,05,39,12.80
2004,06,20,05,40,12.90
2004,06,20,05,41,12.90
2004,06,20,05,42,12.90
2004,06,20,05,43,13.00
2004,06,20,05,44,13.10
2004,06,20,05,45,13.10
2004,06,20,05,46,13.20
2004,06,20,05,47,13.30
2004,06,20,05,48,13.30
2004,06,20,05,49,13.30
2004,06,20,05,50,13.30
2004,06,20,05,51,13.40
2004,06,20,05,52,13.40
2004,06,20,05,53,13.50
2004,06,20,05,54,13.50
2004,06,20,05,55,13.50
2004,06,20,05,56,13.50
2004,06,20,05,57,13.50
2004,06,20,05,58,13.50
2004,06,20,05,59,13.50
2004,06,20,06,00,13.50
2004,06,20,06,01,13.60
2004,06,20,06,02,13.70
2004,06,20,06,03,13.70
2004,06,20,06,04,13.80
2004,06,20,06,05,13.80
2004,06,20,06,06,13.90
2004,06,20,06,07,13.90
2004,06,20,06,08,13.90
2004,06,20,06,09,13.90
2004,06,20,06,10,13.90
2004,06,20,06,11,13.90
2004,06,20,06,12,13.90
2004,06,20,06,13,13.90
2004,06,20,06,14,13.90
2004,06,20,06,15,13.80
2004,06,20,06,16,13.70
2004,06,20,06,17,13.70
2004,06,20,06,18,13.70
2004,06,20,06,19,13.70
2004,06,20,06,20,13.70
2004,06,20,06,21,13.70
2004,06,20,06,22,13.80
2004,06,20,06,23,13.80
2004,06,20,06,24,13.80
2004,06,20,06,25,13.70
2004,06,20,06,26,13.70
2004,06,20,06,27,13.70
2004,06,20,06,28,13.70
2004,06,20,06,29,13.70
2004,06,20,06,30,13.80
2004,06,20,06,31,13.90
2004,06,20,06,32,13.90
2004,06,20,06,33,14.00
2004,06,20,06,34,14.00
2004,06,20,06,35,14.00
2004,06,20,06,36,14.10
2004,06,20,06,37,14.10
2004,06,20,06,38,14.20
2004,06,20,06,39,14.20
2004,06,20,06,40,14.30
2004,06,20,06,41,14.50
2004,06,20,06,42,14.60
2004,06,20,06,43,14.60
2004,06,20,06,44,14.60
2004,06,20,06,45,14.60
2004,06,20,06,46,14.60
2004,06,20,06,47,14.60
2004,06,20,06,48,14.60
2004,06,20,06,49,14.60
2004,06,20,06,50,14.70
2004,06,20,06,51,14.70
2004,06,20,06,52,14.80
2004,06,20,06,53,14.80
2004,06,20,06,54,14.90
2004,06,20,06,55,14.90
2004,06,20,06,56,14.90
2004,06,20,06,57,14.90
2004,06,20,06,58,15.00
2004,06,20,06,59,14.90
2004,06,20,07,00,15.00
2004,06,20,07,01,15.10
2004,06,20,07,02,15.10
2004,06,20,07,03,15.20
2004,06,20,07,04,15.30
2004,06,20,07,05,15.40
2004,06,20,07,06,15.50
2004,06,20,07,07,15.70
2004,06,20,07,08,15.80
2004,06,20,07,09,15.80
2004,06,20,07,10,15.90
2004,06,20,07,11,16.00
2004,06,20,07,12,16.10
2004,06,20,07,13,16.10
2004,06,20,07,14,16.10
2004,06,20,07,15,16.10
2004,06,20,07,16,16.00
2004,06,20,07,17,15.90
2004,06,20,07,18,15.80
2004,06,20,07,19,15.80
2004,06,20,07,20,15.90
2004,06,20,07,21,15.90
2004,06,20,07,22,16.00
2004,06,20,07,23,16.10
2004,06,20,07,24,16.20
2004,06,20,07,25,16.30
2004,06,20,07,26,16.50
2004,06,20,07,27,16.70
2004,06,20,07,28,16.80
2004,06,20,07,29,16.90
2004,06,20,07,30,17.00
2004,06,20,07,31,17.00
2004,06,20,07,32,17.10
2004,06,20,07,33,17.20
2004,06,20,07,34,17.30
2004,06,20,07,35,17.30
2004,06,20,07,36,17.30
2004,06,20,07,37,17.30
2004,06,20,07,38,17.30
2004,06,20,07,39,17.40
2004,06,20,07,40,17.60
2004,06,20,07,41,17.80
2004,06,20,07,42,17.80
2004,06,20,07,43,17.90
2004,06,20,07,44,17.90
2004,06,20,07,45,17.80
2004,06,20,07,46,17.80
2004,06,20,07,47,17.70
2004,06,20,07,48,17.70
2004,06,20,07,49,17.60
2004,06,20,07,50,17.70
2004,06,20,07,51,17.70
2004,06,20,07,52,17.90
2004,06,20,07,53,18.00
2004,06,20,07,54,18.10
2004,06,20,07,55,18.20
2004,06,20,07,56,18.30
2004,06,20,07,57,18.10
2004,06,20,07,58,17.90
2004,06,20,07,59,17.80
2004,06,20,08,00,17.60
2004,06,20,08,01,17.20
2004,06,20,08,02,16.90
2004,06,20,08,03,16.70
2004,06,20,08,04,16.50
2004,06,20,08,05,16.30
2004,06,20,08,06,16.20
2004,06,20,08,07,16.00
2004,06,20,08,08,15.90
2004,06,20,08,09,15.90
2004,06,20,08,10,16.10
2004,06,20,08,11,16.10
2004,06,20,08,12,16.10
2004,06,20,08,13,15.90
2004,06,20,08,14,15.80
2004,06,20,08,15,15.60
2004,06,20,08,16,15.60
2004,06,20,08,17,15.50
2004,06,20,08,18,15.60
2004,06,20,08,19,15.60
2004,06,20,08,20,15.50
2004,06,20,08,21,15.50
2004,06,20,08,22,15.40
2004,06,20,08,23,15.30
2004,06,20,08,24,15.40
2004,06,20,08,25,15.40
2004,06,20,08,26,15.50
2004,06,20,08,27,15.40
2004,06,20,08,28,15.30
2004,06,20,08,29,15.20
2004,06,20,08,30,15.10
2004,06,20,08,31,15.00
2004,06,20,08,32,15.00
2004,06,20,08,33,15.00
2004,06,20,08,34,15.00
2004,06,20,08,35,15.10
2004,06,20,08,36,15.40
2004,06,20,08,37,15.50
2004,06,20,08,38,15.50
2004,06,20,08,39,15.50
2004,06,20,08,40,15.60
2004,06,20,08,41,15.60
2004,06,20,08,42,15.50
2004,06,20,08,43,15.40
2004,06,20,08,44,15.40
2004,06,20,08,45,15.50
2004,06,20,08,46,15.60
2004,06,20,08,47,15.70
2004,06,20,08,48,15.80
2004,06,20,08,49,16.00
2004,06,20,08,50,16.20
2004,06,20,08,51,16.30
2004,06,20,08,52,16.30
2004,06,20,08,53,16.50
2004,06,20,08,54,16.70
2004,06,20,08,55,16.70
2004,06,20,08,56,16.60
2004,06,20,08,57,16.50
2004,06,20,08,58,16.40
2004,06,20,08,59,16.40
2004,06,20,09,00,16.60
2004,06,20,09,01,16.60
2004,06,20,09,02,16.70
2004,06,20,09,03,16.70
2004,06,20,09,04,16.70
2004,06,20,09,05,16.90
2004,06,20,09,06,17.10
2004,06,20,09,07,17.30
2004,06,20,09,08,17.50
2004,06,20,09,09,17.70
2004,06,20,09,10,17.80
2004,06,20,09,11,17.90
2004,06,20,09,12,18.00
2004,06,20,09,13,18.10
2004,06,20,09,14,18.20
2004,06,20,09,15,18.30
2004,06,20,09,16,18.20
2004,06,20,09,17,18.20
2004,06,20,09,18,18.10
2004,06,20,09,19,18.00
2004,06,20,09,20,17.80
2004,06,20,09,21,17.80
2004,06,20,09,22,17.50
2004,06,20,09,23,17.40
2004,06,20,09,24,17.30
2004,06,20,09,25,17.20
2004,06,20,09,26,17.00
2004,06,20,09,27,17.00
2004,06,20,09,28,16.90
2004,06,20,09,29,16.80
2004,06,20,09,30,16.70
2004,06,20,09,31,16.50
2004,06,20,09,32,16.40
2004,06,20,09,33,16.40
2004,06,20,09,34,16.30
2004,06,20,09,35,16.30
2004,06,20,09,36,16.30
2004,06,20,09,37,16.20
2004,06,20,09,38,16.20
2004,06,20,09,39,16.20
2004,06,20,09,40,16.00
2004,06,20,09,41,15.80
2004,06,20,09,42,15.70
2004,06,20,09,43,15.70
2004,06,20,09,44,15.60
2004,06,20,09,45,15.60
2004,06,20,09,46,15.60
2004,06,20,09,47,15.70
2004,06,20,09,48,15.80
2004,06,20,09,49,15.80
2004,06,20,09,50,15.80
2004,06,20,09,51,15.80
2004,06,20,09,52,15.80
2004,06,20,09,53,15.90
2004,06,20,09,54,15.90
2004,06,20,09,55,15.90
2004,06,20,09,56,15.90
2004,06,20,09,57,16.10
2004,06,20,09,58,16.20
2004,06,20,09,59,16.40
2004,06,20,10,00,16.70
2004,06,20,10,01,16.80
2004,06,20,10,02,16.80
2004,06,20,10,03,16.90
2004,06,20,10,04,17.00
2004,06,20,10,05,17.20
2004,06,20,10,06,17.70
2004,06,20,10,07,17.80
2004,06,20,10,08,18.00
2004,06,20,10,09,18.20
2004,06,20,10,10,18.30
2004,06,20,10,11,18.40
2004,06,20,10,12,18.40
2004,06,20,10,13,18.50
2004,06,20,10,14,18.70
2004,06,20,10,15,18.90
2004,06,20,10,16,18.90
2004,06,20,10,17,18.90
2004,06,20,10,18,18.80
2004,06,20,10,19,18.70
2004,06,20,10,20,18.80
2004,06,20,10,21,18.90
2004,06,20,10,22,18.90
2004,06,20,10,23,18.90
2004,06,20,10,24,18.90
2004,06,20,10,25,19.10
2004,06,20,10,26,19.00
2004,06,20,10,27,19.00
2004,06,20,10,28,19.10
2004,06,20,10,29,19.10
2004,06,20,10,30,19.20
2004,06,20,10,31,19.30
2004,06,20,10,32,19.20
2004,06,20,10,33,19.10
2004,06,20,10,34,19.00
2004,06,20,10,35,18.90
2004,06,20,10,36,18.90
2004,06,20,10,37,18.90
2004,06,20,10,38,19.00
2004,06,20,10,39,19.30
2004,06,20,10,40,19.20
2004,06,20,10,41,19.00
2004,06,20,10,42,19.00
2004,06,20,10,43,19.10
2004,06,20,10,44,19.20
2004,06,20,10,45,19.10
2004,06,20,10,46,19.10
2004,06,20,10,47,19.00
2004,06,20,10,48,19.10
2004,06,20,10,49,19.10
2004,06,20,10,50,19.10
2004,06,20,10,51,19.10
2004,06,20,10,52,19.10
2004,06,20,10,53,19.20
2004,06,20,10,54,19.30
2004,06,20,10,55,19.50
2004,06,20,10,56,19.60
2004,06,20,10,57,19.70
2004,06,20,10,58,19.70
2004,06,20,10,59,19.80
2004,06,20,11,00,19.60
2004,06,20,11,01,19.50
2004,06,20,11,02,19.40
2004,06,20,11,03,19.20
2004,06,20,11,04,19.00
2004,06,20,11,05,19.00
2004,06,20,11,06,19.10
2004,06,20,11,07,19.20
2004,06,20,11,08,19.20
2004,06,20,11,09,19.10
2004,06,20,11,10,19.40
2004,06,20,11,11,19.60
2004,06,20,11,12,19.40
2004,06,20,11,13,19.40
2004,06,20,11,14,19.40
2004,06,20,11,15,19.50
2004,06,20,11,16,19.50
2004,06,20,11,17,19.40
2004,06,20,11,18,19.40
2004,06,20,11,19,19.40
2004,06,20,11,20,19.50
2004,06,20,11,21,19.60
2004,06,20,11,22,19.70
2004,06,20,11,23,19.60
2004,06,20,11,24,19.60
2004,06,20,11,25,19.40
2004,06,20,11,26,19.30
2004,06,20,11,27,19.10
2004,06,20,11,28,19.10
2004,06,20,11,29,19.20
2004,06,20,11,30,19.30
2004,06,20,11,31,19.30
2004,06,20,11,32,19.40
2004,06,20,11,33,19.60
2004,06,20,11,34,19.70
2004,06,20,11,35,19.60
2004,06,20,11,36,19.80
2004,06,20,11,37,19.90
2004,06,20,11,38,20.20
2004,06,20,11,39,20.10
2004,06,20,11,40,20.00
2004,06,20,11,41,19.70
2004,06,20,11,42,19.40
2004,06,20,11,43,19.20
2004,06,20,11,44,19.20
2004,06,20,11,45,19.20
2004,06,20,11,46,19.30
2004,06,20,11,47,19.30
2004,06,20,11,48,19.10
2004,06,20,11,49,19.00
2004,06,20,11,50,18.80
2004,06,20,11,51,18.70
2004,06,20,11,52,18.60
2004,06,20,11,53,18.60
2004,06,20,11,54,18.70
2004,06,20,11,55,18.70
2004,06,20,11,56,18.80
2004,06,20,11,57,18.90
2004,06,20,11,58,18.80
2004,06,20,11,59,18.90
2004,06,20,12,00,19.00
2004,06,20,12,01,19.10
2004,06,20,12,02,19.10
2004,06,20,12,03,19.20
2004,06,20,12,04,19.30
2004,06,20,12,05,19.20
2004,06,20,12,06,19.50
2004,06,20,12,07,19.60
2004,06,20,12,08,19.70
2004,06,20,12,09,19.90
2004,06,20,12,10,19.90
2004,06,20,12,11,19.90
2004,06,20,12,12,19.90
2004,06,20,12,13,20.10
2004,06,20,12,14,20.10
2004,06,20,12,15,20.10
2004,06,20,12,16,20.20
2004,06,20,12,17,20.20
2004,06,20,12,18,20.30
2004,06,20,12,19,20.50
2004,06,20,12,20,20.50
2004,06,20,12,21,20.60
2004,06,20,12,22,20.80
2004,06,20,12,23,20.90
2004,06,20,12,24,21.00
2004,06,20,12,25,21.20
2004,06,20,12,26,21.30
2004,06,20,12,27,21.40
2004,06,20,12,28,21.70
2004,06,20,12,29,22.00
2004,06,20,12,30,22.30
2004,06,20,12,31,22.40
2004,06,20,12,32,22.60
2004,06,20,12,33,22.80
2004,06,20,12,34,23.00
2004,06,20,12,35,23.20
2004,06,20,12,36,23.40
2004,06,20,12,37,23.40
2004,06,20,12,38,23.50
2004,06,20,12,39,23.60
2004,06,20,12,40,23.70
2004,06,20,12,41,23.80
2004,06,20,12,42,23.60
2004,06,20,12,43,23.60
2004,06,20,12,44,23.50
2004,06,20,12,45,23.40
2004,06,20,12,46,23.30
2004,06,20,12,47,23.20
2004,06,20,12,48,23.10
2004,06,20,12,49,23.00
2004,06,20,12,50,22.90
2004,06,20,12,51,22.80
2004,06,20,12,52,22.80
2004,06,20,12,53,22.80
2004,06,20,12,54,22.80
2004,06,20,12,55,22.80
2004,06,20,12,56,22.80
2004,06,20,12,57,22.80
2004,06,20,12,58,22.80
2004,06,20,12,59,22.90
2004,06,20,13,00,22.90
2004,06,20,13,01,23.00
2004,06,20,13,02,23.10
2004,06,20,13,03,23.20
2004,06,20,13,04,23.10
2004,06,20,13,05,23.10
2004,06,20,13,06,22.90
2004,06,20,13,07,22.90
2004,06,20,13,08,22.80
2004,06,20,13,09,22.70
2004,06,20,13,10,22.60
2004,06,20,13,11,22.70
2004,06,20,13,12,22.80
2004,06,20,13,13,22.90
2004,06,20,13,14,23.00
2004,06,20,13,15,23.10
2004,06,20,13,16,23.20
2004,06,20,13,17,23.40
2004,06,20,13,18,23.60
2004,06,20,13,19,23.60
2004,06,20,13,20,23.60
2004,06,20,13,21,23.70
2004,06,20,13,22,23.70
2004,06,20,13,23,23.70
2004,06,20,13,24,23.70
2004,06,20,13,25,23.80
2004,06,20,13,26,23.80
2004,06,20,13,27,23.70
2004,06,20,13,28,23.60
2004,06,20,13,29,23.60
2004,06,20,13,30,23.70
2004,06,20,13,31,23.80
2004,06,20,13,32,23.80
2004,06,20,13,33,23.90
2004,06,20,13,34,24.10
2004,06,20,13,35,24.10
2004,06,20,13,36,24.10
2004,06,20,13,37,24.10
2004,06,20,13,38,24.20
2004,06,20,13,39,24.40
2004,06,20,13,40,24.50
2004,06,20,13,41,24.70
2004,06,20,13,42,24.70
2004,06,20,13,43,24.50
2004,06,20,13,44,24.40
2004,06,20,13,45,24.50
2004,06,20,13,46,24.60
2004,06,20,13,47,24.80
2004,06,20,13,48,24.80
2004,06,20,13,49,24.50
2004,06,20,13,50,24.30
2004,06,20,13,51,24.30
2004,06,20,13,52,24.40
2004,06,20,13,53,24.50
2004,06,20,13,54,24.30
2004,06,20,13,55,24.30
2004,06,20,13,56,24.50
2004,06,20,13,57,24.80
2004,06,20,13,58,25.00
2004,06,20,13,59,25.00
2004,06,20,14,00,24.90
2004,06,20,14,01,24.80
2004,06,20,14,02,24.80
2004,06,20,14,03,24.60
2004,06,20,14,04,24.70
2004,06,20,14,05,24.80
2004,06,20,14,06,25.00
2004,06,20,14,07,25.20
2004,06,20,14,08,25.40
2004,06,20,14,09,25.50
2004,06,20,14,10,25.40
2004,06,20,14,11,25.20
2004,06,20,14,12,24.90
2004,06,20,14,13,24.60
2004,06,20,14,14,24.70
2004,06,20,14,15,25.00
2004,06,20,14,16,25.10
2004,06,20,14,17,25.20
2004,06,20,14,18,25.50
2004,06,20,14,19,25.80
2004,06,20,14,20,26.10
2004,06,20,14,21,26.30
2004,06,20,14,22,26.50
2004,06,20,14,23,26.80
2004,06,20,14,24,26.90
2004,06,20,14,25,27.10
2004,06,20,14,26,27.20
2004,06,20,14,27,27.10
2004,06,20,14,28,26.80
2004,06,20,14,29,26.70
2004,06,20,14,30,26.80
2004,06,20,14,31,26.80
2004,06,20,14,32,26.80
2004,06,20,14,33,26.70
2004,06,20,14,34,26.60
2004,06,20,14,35,26.60
2004,06,20,14,36,26.80
2004,06,20,14,37,27.10
2004,06,20,14,38,27.30
2004,06,20,14,39,27.40
2004,06,20,14,40,27.50
2004,06,20,14,41,27.50
2004,06,20,14,42,27.60
2004,06,20,14,43,27.70
2004,06,20,14,44,27.80
2004,06,20,14,45,27.40
2004,06,20,14,46,27.50
2004,06,20,14,47,27.70
2004,06,20,14,48,27.80
2004,06,20,14,49,28.00
2004,06,20,14,50,27.90
2004,06,20,14,51,27.80
2004,06,20,14,52,27.70
2004,06,20,14,53,27.90
2004,06,20,14,54,27.90
2004,06,20,14,55,28.00
2004,06,20,14,56,27.90
2004,06,20,14,57,27.90
2004,06,20,14,58,27.90
2004,06,20,14,59,28.00
2004,06,20,15,00,28.00
2004,06,20,15,01,28.10
2004,06,20,15,02,28.10
2004,06,20,15,03,28.20
2004,06,20,15,04,28.30
2004,06,20,15,05,28.20
2004,06,20,15,06,28.20
2004,06,20,15,07,28.20
2004,06,20,15,08,28.10
2004,06,20,15,09,28.20
2004,06,20,15,10,28.20
2004,06,20,15,11,28.20
2004,06,20,15,12,28.10
2004,06,20,15,13,28.10
2004,06,20,15,14,28.10
2004,06,20,15,15,28.00
2004,06,20,15,16,28.00
2004,06,20,15,17,27.80
2004,06,20,15,18,27.90
2004,06,20,15,19,28.10
2004,06,20,15,20,28.10
2004,06,20,15,21,28.30
2004,06,20,15,22,28.40
2004,06,20,15,23,28.40
2004,06,20,15,24,28.50
2004,06,20,15,25,28.80
2004,06,20,15,26,28.70
2004,06,20,15,27,28.60
2004,06,20,15,28,28.50
2004,06,20,15,29,28.20
2004,06,20,15,30,28.10
2004,06,20,15,31,28.00
2004,06,20,15,32,28.10
2004,06,20,15,33,28.50
2004,06,20,15,34,28.50
2004,06,20,15,35,28.60
2004,06,20,15,36,28.70
2004,06,20,15,37,28.50
2004,06,20,15,38,28.70
2004,06,20,15,39,28.80
2004,06,20,15,40,28.90
2004,06,20,15,41,28.90
2004,06,20,15,42,28.90
2004,06,20,15,43,28.90
2004,06,20,15,44,28.70
2004,06,20,15,45,28.60
2004,06,20,15,46,28.50
2004,06,20,15,47,28.40
2004,06,20,15,48,28.40
2004,06,20,15,49,28.30
2004,06,20,15,50,28.20
2004,06,20,15,51,28.00
2004,06,20,15,52,28.10
2004,06,20,15,53,28.30
2004,06,20,15,54,28.20
2004,06,20,15,55,28.10
2004,06,20,15,56,28.10
2004,06,20,15,57,28.00
2004,06,20,15,58,27.80
2004,06,20,15,59,27.80
2004,06,20,16,00,27.70
2004,06,20,16,01,27.90
2004,06,20,16,02,27.90
2004,06,20,16,03,27.90
2004,06,20,16,04,28.00
2004,06,20,16,05,28.10
2004,06,20,16,06,28.20
2004,06,20,16,07,28.40
2004,06,20,16,08,28.50
2004,06,20,16,09,28.50
2004,06,20,16,10,28.60
2004,06,20,16,11,28.60
2004,06,20,16,12,28.60
2004,06,20,16,13,28.50
2004,06,20,16,14,28.60
2004,06,20,16,15,28.60
2004,06,20,16,16,28.70
2004,06,20,16,17,28.50
2004,06,20,16,18,28.60
2004,06,20,16,19,28.90
2004,06,20,16,20,29.20
2004,06,20,16,21,29.50
2004,06,20,16,22,29.60
2004,06,20,16,23,29.70
2004,06,20,16,24,29.70
2004,06,20,16,25,29.60
2004,06,20,16,26,29.60
2004,06,20,16,27,29.60
2004,06,20,16,28,29.70
2004,06,20,16,29,29.60
2004,06,20,16,30,29.70
2004,06,20,16,31,29.80
2004,06,20,16,32,30.00
2004,06,20,16,33,30.00
2004,06,20,16,34,30.10
2004,06,20,16,35,29.90
2004,06,20,16,36,30.10
2004,06,20,16,37,29.90
2004,06,20,16,38,29.90
2004,06,20,16,39,30.00
2004,06,20,16,40,30.10
2004,06,20,16,41,30.00
2004,06,20,16,42,29.80
2004,06,20,16,43,29.50
2004,06,20,16,44,29.70
2004,06,20,16,45,29.60
2004,06,20,16,46,29.50
2004,06,20,16,47,29.40
2004,06,20,16,48,29.30
2004,06,20,16,49,29.20
2004,06,20,16,50,29.20
2004,06,20,16,51,29.30
2004,06,20,16,52,29.30
2004,06,20,16,53,29.30
2004,06,20,16,54,29.20
2004,06,20,16,55,29.20
2004,06,20,16,56,29.20
2004,06,20,16,57,29.30
2004,06,20,16,58,29.00
2004,06,20,16,59,29.10
2004,06,20,17,00,29.00
2004,06,20,17,01,28.90
2004,06,20,17,02,28.90
2004,06,20,17,03,28.90
2004,06,20,17,04,29.00
2004,06,20,17,05,29.20
2004,06,20,17,06,29.20
2004,06,20,17,07,29.40
2004,06,20,17,08,29.40
2004,06,20,17,09,29.40
2004,06,20,17,10,29.40
2004,06,20,17,11,29.40
2004,06,20,17,12,29.30
2004,06,20,17,13,29.20
2004,06,20,17,14,29.10
2004,06,20,17,15,29.20
2004,06,20,17,16,29.30
2004,06,20,17,17,29.40
2004,06,20,17,18,29.50
2004,06,20,17,19,29.50